Weather History for Olathe, KS

Change the Weather History Date:

Friday, June 14, 2013

  Actual Average Record
Temperature  
Mean Temperature 76 °F 73 °F  
Max Temperature 87 °F 83 °F 97 °F (1963)
Min Temperature 65 °F 64 °F 44 °F (1942)
Degree Days  
Heating Degree Days 0 0  
Month to date heating degree days 14 6  
Since 1 June heating degree days 14 6  
Since 1 July heating degree days 5099 4932  
Cooling Degree Days 11 8  
Month to date cooling degree days 73 97  
Year to date cooling degree days 174 201  
Since 1 June cooling degree days 73 97  
Growing Degree Days 26 (Base 50)    
Moisture  
Dew Point 67 °F    
Average Humidity 73    
Maximum Humidity 87    
Minimum Humidity 59    
Precipitation  
Precipitation 0.00 in 0.21 in 1.73 in (1961)
Month to date precipitation 1.45 2.97  
Year to date precipitation 19.38 17.71  
Sea Level Pressure  
Sea Level Pressure 29.94 in    
Wind  
Wind Speed 10 mph (SE)    
Max Wind Speed 20 mph    
Max Gust Speed 26 mph    
Visibility 10 miles    
Events      
T = Trace of Precipitation, MM = Missing Value Source: NWS Daily Summary

Daily Weather History Graph

Daily Weather History Graph

Search for Another Location

Airport:

Trip Planner

Search our weather history database for the weather conditions in past years. The results will help you decide how hot, cold, wet, or windy it might be!

Date:

Astronomy

Jun. 14, 2013 Rise Set
Actual Time 5:53 AM CDT 8:45 PM CDT
Civil Twilight 5:21 AM CDT 9:17 PM CDT
Nautical Twilight 4:40 AM CDT 9:57 PM CDT
Astronomical Twilight 3:54 AM CDT 10:44 PM CDT
Moon 11:26 AM CDT (6/14) No Moon Set
Length of Visible Light 15h 56m
Length of Day
14h 52m
Waxing Crescent, 30% of the Moon is Illuminated
Jun 14
Waxing Crescent
Jun 16
First Quarter
Jun 23
Full
Jun 29
Last Quarter
Jul 8
New

Hourly Weather History & Observations

Time (CDT) Temp. Heat Index Dew Point Humidity Pressure Visibility Wind Dir Wind Speed Gust Speed Precip Events Conditions
12:53 AM 69.1 °F - 62.1 °F 78% 29.99 in 10.0 mi ENE 3.5 mph - N/A   Clear
1:53 AM 69.1 °F - 62.1 °F 78% 29.98 in 10.0 mi ESE 4.6 mph - N/A   Clear
2:53 AM 68.0 °F - 62.1 °F 81% 29.99 in 10.0 mi Calm Calm - N/A   Clear
3:53 AM 66.9 °F - 62.1 °F 84% 29.99 in 10.0 mi ESE 5.8 mph - N/A   Clear
4:53 AM 66.9 °F - 63.0 °F 87% 29.97 in 10.0 mi ESE 5.8 mph - N/A   Clear
5:53 AM 66.0 °F - 63.0 °F 90% 29.97 in 10.0 mi East 4.6 mph - N/A   Clear
6:53 AM 68.0 °F - 64.0 °F 87% 30.00 in 10.0 mi SSE 5.8 mph - N/A   Partly Cloudy
7:53 AM 69.1 °F - 64.9 °F 87% 29.99 in 10.0 mi SSE 8.1 mph - N/A   Partly Cloudy
8:53 AM 72.0 °F - 64.9 °F 78% 30.00 in 10.0 mi SSE 11.5 mph - N/A   Mostly Cloudy
9:53 AM 75.0 °F - 64.0 °F 69% 29.99 in 10.0 mi SSE 16.1 mph - N/A   Scattered Clouds
10:53 AM 75.9 °F - 64.0 °F 67% 29.97 in 10.0 mi South 13.8 mph - N/A   Clear
11:53 AM 81.0 °F 83.3 °F 66.9 °F 62% 29.96 in 10.0 mi SSE 15.0 mph - N/A   Clear
12:53 PM 81.0 °F 83.8 °F 68.0 °F 65% 29.95 in 10.0 mi SSE 8.1 mph - N/A   Clear
1:53 PM 84.9 °F 89.4 °F 70.0 °F 61% 29.94 in 10.0 mi SSE 11.5 mph - N/A   Clear
2:53 PM 84.9 °F 90.1 °F 71.1 °F 63% 29.92 in 10.0 mi SE 9.2 mph 18.4 mph N/A   Clear
3:53 PM 87.1 °F 93.6 °F 72.0 °F 61% 29.89 in 10.0 mi SSE 11.5 mph 23.0 mph N/A   Partly Cloudy
4:53 PM 86.0 °F 92.2 °F 72.0 °F 63% 29.88 in 10.0 mi SSE 15.0 mph - N/A   Mostly Cloudy
5:53 PM 84.9 °F 91.4 °F 73.0 °F 67% 29.86 in 10.0 mi SE 15.0 mph - N/A   Mostly Cloudy
6:53 PM 84.0 °F 89.6 °F 72.0 °F 67% 29.87 in 10.0 mi SE 11.5 mph 19.6 mph N/A   Mostly Cloudy
7:53 PM 82.9 °F 88.0 °F 72.0 °F 69% 29.88 in 10.0 mi SE 11.5 mph - N/A   Scattered Clouds
8:53 PM 81.0 °F 84.9 °F 71.1 °F 72% 29.88 in 10.0 mi SE 10.4 mph 17.3 mph N/A   Clear
9:53 PM 79.0 °F - 70.0 °F 74% 29.91 in 10.0 mi SE 8.1 mph - N/A   Clear
10:53 PM 78.1 °F - 69.1 °F 74% 29.93 in 10.0 mi SE 9.2 mph - N/A   Scattered Clouds
11:53 PM 75.9 °F - 68.0 °F 76% 29.91 in 10.0 mi SSE 13.8 mph 20.7 mph N/A   Clear